Home > Weather > Venice > Past weeks

Flag for Italy Weather for the Past 2 Weeks in Venice, Italy

Now
50 °F

Fog.


Feels Like: 47 °F
Forecast: 39 / 50 °F
Wind: 7 mph from Northeast

Location: Venice / Tessera

Current Time: Feb 9, 2016 at 11:38:46 AM

Latest Report: Feb 9, 2016 at 10:50 AM


Visibility: 2 mi

Pressure: 29.95 "Hg

Humidity: 88%

Dew point: 46 °F

Location of VeniceLocation

Historic Weather in Venice — Graph

°F

Venice Temperature Yesterday

Maximum temperature yesterday: 50 °F (at 1:20 PM)
Minimum temperature yesterday: 45 °F (at 11:50 PM)
Average temperature yesterday: 48 °F

High & Low Weather Summary for the Past Weeks

 TemperatureHumidityPressure
High54 °F (Feb 4, 12:20 PM)100% (Jan 27, 7:20 AM)30.69 "Hg (Jan 27, 7:20 AM)
Low30 °F (Jan 26, 1:50 AM)38% (Feb 4, 2:50 PM)29.86 "Hg (Feb 3, 3:50 PM)
Average43 °F87%30.23 "Hg
* Reported Jan 25 10:20 AM — Feb 9 10:20 AM, Venice, Weather by CustomWeather, © 2016

Note: Actual official high and low records may vary slightly from our data, if they occured in-between our weather recording intervals... More about our weather records

Advertising

Venice Weather History for the Previous 24 Hours

 ConditionsComfort  
Time TempWeatherWind HumidityBarometerVisibility
10:20 AM
Tue, Feb 9
48 °FFog.7 mph94%29.95 "Hg1 mi
9:50 AM46 °FFog.6 mph100%29.95 "Hg1 mi
8:50 AM45 °FPartly sunny.6 mph93%29.98 "Hg1 mi
8:20 AM45 °FBroken clouds.5 mph100%29.98 "Hg1 mi
7:50 AM46 °FFog.5 mph93%29.98 "Hg1 mi
7:20 AM45 °FFog.5 mph100%29.98 "Hg1 mi
6:50 AM46 °FPassing clouds.5 mph93%29.98 "Hg1 mi
6:20 AM46 °FPassing clouds.5 mph93%29.98 "Hg1 mi
5:50 AM45 °FPassing clouds.5 mph100%29.98 "Hg1 mi
5:20 AM45 °FFog.2 mph100%29.98 "Hg1 mi
4:50 AM45 °FFog.5 mph100%29.98 "Hg1 mi
4:20 AM45 °FFog.5 mph100%29.98 "Hg1 mi
3:50 AM45 °FFog.5 mph100%29.98 "Hg1 mi
3:20 AM45 °FFog.3 mph100%29.98 "Hg1 mi
2:50 AM46 °FPassing clouds.1 mph93%29.98 "Hg1 mi
2:20 AM46 °FPassing clouds.5 mph93%29.98 "Hg1 mi
1:50 AM45 °FPassing clouds.1 mph93%29.98 "Hg1 mi
1:20 AM45 °FFog.5 mph100%29.98 "Hg1 mi
12:50 AM45 °FFog.1 mph100%29.98 "Hg1 mi
12:20 AM45 °FFog.3 mph93%29.98 "Hg1 mi
11:50 PM
Mon, Feb 8
45 °FFog.3 mph100%29.98 "Hg2 mi
11:20 PM46 °FFog.9 mph93%29.98 "Hg2 mi
10:50 PM46 °FFog.10 mph93%29.98 "Hg3 mi
10:20 PM46 °FPassing clouds.7 mph100%29.98 "Hg4 mi
9:50 PM46 °FPartly cloudy.6 mph93%29.98 "Hg4 mi
9:20 PM48 °FPassing clouds.5 mph94%29.98 "Hg4 mi
8:50 PM48 °FPassing clouds.2 mph94%29.98 "Hg4 mi
8:20 PM48 °FPassing clouds.6 mph94%29.98 "Hg4 mi
7:50 PM48 °FPassing clouds.6 mph94%29.98 "Hg4 mi
7:20 PM48 °FPassing clouds.5 mph94%29.98 "Hg4 mi
6:50 PM48 °FFog.6 mph94%29.98 "Hg3 mi
6:20 PM48 °FFog.7 mph94%29.98 "Hg3 mi
5:50 PM48 °FFog.8 mph94%29.95 "Hg3 mi
5:20 PM48 °FScattered clouds.6 mph94%29.95 "Hg4 mi
4:50 PM48 °FPartly sunny.6 mph94%29.98 "Hg4 mi
4:20 PM50 °FPartly sunny.5 mph94%29.98 "Hg4 mi
3:50 PM50 °FBroken clouds.5 mph94%29.95 "Hg4 mi
3:20 PM50 °FPartly sunny.5 mph94%29.95 "Hg4 mi
2:50 PM50 °FPartly sunny.5 mph94%29.95 "Hg4 mi
2:20 PM50 °FPartly sunny.7 mph94%29.98 "Hg4 mi
1:50 PM50 °FFog.8 mph94%29.98 "Hg3 mi
1:20 PM50 °FFog.8 mph94%29.98 "Hg2 mi
12:50 PM48 °FFog.9 mph100%29.98 "Hg2 mi
12:20 PM48 °FFog.8 mph94%30.01 "Hg2 mi
11:50 AM48 °FFog.8 mph100%30.01 "Hg2 mi
11:20 AM48 °FFog.8 mph100%30.01 "Hg1 mi
Weather by CustomWeather, © 2016

See weather overviewHow to use our weather pages